Flag for Malaysia Weather past 2 weeks in Kuala Lumpur, Malaysia

Now
79 °F

Partly cloudy.


Feels Like: 83 °F
Forecast: 76 / 88 °F
Wind: 2 mph from Northeast

Location: Sultan Abdul Aziz Shah-Subang


UV Index: 7 (High)

Visibility: 5 mi


Pressure: 29.80 "Hg

Humidity: 94%

Dew point: 77 °F

Location of Kuala LumpurLocation

Historic Weather in Kuala Lumpur

°F

Kuala Lumpur temperature yesterday

Maximum temperature yesterday: 93 °F (at 2:00 PM)
Minimum temperature yesterday: 75 °F (at 4:00 AM)
Average temperature yesterday: 81 °F

Past Weeks' High & Low Weather Summary

 TemperatureHumidityPressure
High93 °F (Apr 9, 2:00 PM)100% (Apr 12, 4:00 AM)29.92 "Hg (Apr 12, 4:00 AM)
Low73 °F (Apr 12, 2:00 AM)56% (Apr 9, 2:00 PM)29.68 "Hg (Apr 23, 5:00 PM)
Average82 °F81%29.82 "Hg
* Reported Apr 8 10:00 PM — Apr 23 10:00 PM, Kuala Lumpur, Weather by CustomWeather, © 2014

Note: Actual official high and low records may vary slightly from our data, if they occured in-between our weather recording intervals... More about our weather records

Advertising

Historic Weather Conditions — Data for Previous 24 hours

 ConditionsComfort  
Time TempWeatherWind HumidityBarometerVisibility
10:00 PM
Apr 23
79 °FPartly cloudy.2 mph94%29.80 "Hg5 mi
9:00 PM79 °FLight rain. Mostly cloudy.3 mph94%29.80 "Hg5 mi
8:00 PM79 °FLight rain. Mostly cloudy.1 mph89%29.77 "Hg5 mi
7:00 PM77 °FThunderstorms. More clouds than sun.3 mph94%29.77 "Hg4 mi
6:00 PM84 °FThunderstorms. More clouds than sun.3 mph84%29.74 "Hg3 mi
5:00 PM90 °FThunderstorms. Broken clouds.6 mph67%29.68 "HgN/A
4:00 PM91 °FBroken clouds.10 mph67%29.71 "HgN/A
3:00 PM91 °FBroken clouds.8 mph63%29.74 "HgN/A
2:00 PM93 °FBroken clouds.6 mph59%29.77 "HgN/A
1:00 PM91 °FBroken clouds.3 mph59%29.80 "HgN/A
12:00 PM90 °FBroken clouds.5 mph67%29.83 "HgN/A
11:00 AM88 °FPartly sunny.6 mph66%29.86 "HgN/A
10:00 AM86 °FPartly sunny.5 mph75%29.86 "HgN/A
9:00 AM82 °FPartly sunny.2 mph84%29.86 "Hg4 mi
8:00 AM79 °FPartly sunny.1 mph94%29.83 "Hg3 mi
7:00 AM77 °FPassing clouds.No wind94%29.83 "Hg3 mi
6:00 AM77 °FPassing clouds.No wind94%29.80 "Hg2 mi
5:00 AM79 °FPassing clouds.3 mph94%29.80 "Hg2 mi
4:00 AM79 °FPassing clouds.1 mph94%29.80 "Hg3 mi
3:00 AM79 °FPartly cloudy.1 mph94%29.83 "Hg4 mi
2:00 AM79 °FPartly cloudy.1 mph94%29.86 "Hg4 mi
1:00 AM79 °FPartly cloudy.2 mph94%29.86 "Hg4 mi
12:00 AM81 °FPartly cloudy.1 mph89%29.89 "Hg5 mi
11:00 PM
Apr 22
79 °FPartly cloudy.2 mph94%29.89 "Hg5 mi
Weather by CustomWeather, © 2014

See weather overview